| time (UTC) | temp F | wind direction | speed MPH | gust MPH | rain 1hr in | rain 24hr in | rain mn in | humidity % | barometer mb |
| 20260506185004 | 84 | 66 | 7.0 | 10.0 | 0.00 | 0.00 | 0.00 | 17 | 1010.6 |
| 20260506184504 | 85 | 356 | 4.0 | 9.0 | 0.00 | 0.00 | 0.00 | 18 | 1010.9 |
| 20260506184005 | 85 | 27 | 5.0 | 12.0 | 0.00 | 0.00 | 0.00 | 20 | 1011.0 |
| 20260506183504 | 85 | 43 | 7.0 | 12.0 | 0.00 | 0.00 | 0.00 | 18 | 1011.1 |
| 20260506183004 | 85 | 25 | 6.0 | 11.0 | 0.00 | 0.00 | 0.00 | 19 | 1011.1 |
| 20260506182503 | 85 | 44 | 4.0 | 11.0 | 0.00 | 0.00 | 0.00 | 17 | 1011.2 |
| 20260506182004 | 85 | 6 | 4.0 | 10.0 | 0.00 | 0.00 | 0.00 | 18 | 1011.2 |
| 20260506181502 | 84 | 340 | 3.0 | 14.0 | 0.00 | 0.00 | 0.00 | 21 | 1011.2 |
| 20260506181059 | 83 | 25 | 8.0 | 14.0 | 0.00 | 0.00 | 0.00 | 22 | 1011.2 |
| 20260506180107 | 82 | 76 | 7.0 | 14.0 | 0.00 | 0.00 | 0.00 | 25 | 1011.3 |
| 20260506175557 | 81 | 52 | 6.0 | 10.0 | 0.00 | 0.00 | 0.00 | 25 | 1011.3 |
| 20260506175101 | 81 | 50 | 6.0 | 12.0 | 0.00 | 0.00 | 0.00 | 26 | 1011.3 |
| 20260506174558 | 81 | 56 | 7.0 | 12.0 | 0.00 | 0.00 | 0.00 | 26 | 1011.4 |
| 20260506174100 | 80 | 22 | 7.0 | 12.0 | 0.00 | 0.00 | 0.00 | 27 | 1011.5 |
| 20260506173558 | 81 | 63 | 7.0 | 12.0 | 0.00 | 0.00 | 0.00 | 25 | 1011.5 |
| 20260506173059 | 81 | 81 | 5.0 | 11.0 | 0.00 | 0.00 | 0.00 | 26 | 1011.5 |
| 20260506172557 | 81 | 345 | 4.0 | 13.0 | 0.00 | 0.00 | 0.00 | 27 | 1011.6 |
| 20260506172054 | 81 | 44 | 7.0 | 14.0 | 0.00 | 0.00 | 0.00 | 28 | 1011.7 |
| 20260506171558 | 80 | 58 | 6.0 | 14.0 | 0.00 | 0.00 | 0.00 | 29 | 1011.5 |
| 20260506171056 | 80 | 20 | 3.0 | 12.0 | 0.00 | 0.00 | 0.00 | 30 | 1011.5 |
| 20260506170105 | 80 | 77 | 5.0 | 8.0 | 0.00 | 0.00 | 0.00 | 30 | 1011.5 |
| 20260506165555 | 80 | 14 | 3.0 | 8.0 | 0.00 | 0.00 | 0.00 | 31 | 1011.5 |
| 20260506165055 | 79 | 34 | 3.0 | 8.0 | 0.00 | 0.00 | 0.00 | 32 | 1011.5 |
| 20260506164557 | 79 | 39 | 3.0 | 12.0 | 0.00 | 0.00 | 0.00 | 31 | 1011.3 |
| 20260506164053 | 79 | 47 | 7.0 | 12.0 | 0.00 | 0.00 | 0.00 | 32 | 1011.2 |
| 20260506163555 | 79 | 43 | 5.0 | 11.0 | 0.00 | 0.00 | 0.00 | 32 | 1011.3 |
| 20260506163111 | 79 | 27 | 4.0 | 12.0 | 0.00 | 0.00 | 0.00 | 33 | 1011.3 |
| 20260506162553 | 78 | 5 | 6.0 | 13.0 | 0.00 | 0.00 | 0.00 | 34 | 1011.3 |
| 20260506162054 | 78 | 53 | 8.0 | 14.0 | 0.00 | 0.00 | 0.00 | 35 | 1011.3 |
| 20260506161556 | 78 | 30 | 7.0 | 13.0 | 0.00 | 0.00 | 0.00 | 36 | 1011.2 |
| 20260506161052 | 78 | 39 | 8.0 | 13.0 | 0.00 | 0.00 | 0.00 | 36 | 1011.1 |
| 20260506160050 | 78 | 50 | 8.0 | 14.0 | 0.00 | 0.00 | 0.00 | 36 | 1011.0 |
| 20260506155552 | 78 | 41 | 7.0 | 13.0 | 0.00 | 0.00 | 0.00 | 36 | 1010.9 |
| 20260506155047 | 79 | 36 | 8.0 | 13.0 | 0.00 | 0.00 | 0.00 | 35 | 1010.8 |
| 20260506154606 | 80 | 44 | 5.0 | 11.0 | 0.00 | 0.00 | 0.00 | 34 | 1010.6 |
| 20260506154046 | 80 | 44 | 5.0 | 9.0 | 0.00 | 0.00 | 0.00 | 34 | 1010.6 |
| 20260506153544 | 79 | 21 | 4.0 | 10.0 | 0.00 | 0.00 | 0.00 | 34 | 1010.6 |
| 20260506153054 | 79 | 52 | 6.0 | 10.0 | 0.00 | 0.00 | 0.00 | 33 | 1010.6 |
| 20260506152543 | 79 | 62 | 5.0 | 9.0 | 0.00 | 0.00 | 0.00 | 33 | 1010.5 |
| 20260506152042 | 79 | 8 | 3.0 | 7.0 | 0.00 | 0.00 | 0.00 | 32 | 1010.4 |
| 20260506151541 | 79 | 337 | 3.0 | 7.0 | 0.00 | 0.00 | 0.00 | 31 | 1010.3 |
| 20260506151040 | 78 | 356 | 3.0 | 6.0 | 0.00 | 0.00 | 0.00 | 31 | 1010.3 |
| 20260506150040 | 78 | 43 | 2.0 | 4.0 | 0.00 | 0.00 | 0.00 | 32 | 1010.3 |
| 20260506145538 | 77 | 8 | 2.0 | 7.0 | 0.00 | 0.00 | 0.00 | 33 | 1010.3 |
| 20260506145037 | 77 | 4 | 2.0 | 7.0 | 0.00 | 0.00 | 0.00 | 33 | 1010.2 |
| 20260506144535 | 76 | 4 | 2.0 | 7.0 | 0.00 | 0.00 | 0.00 | 34 | 1010.2 |
| 20260506144034 | 75 | 32 | 3.0 | 6.0 | 0.00 | 0.00 | 0.00 | 32 | 1010.3 |
| 20260506143537 | 75 | 59 | 2.0 | 4.0 | 0.00 | 0.00 | 0.00 | 30 | 1010.3 |
| 20260506143045 | 75 | 150 | 1.0 | 3.0 | 0.00 | 0.00 | 0.00 | 31 | 1010.2 |
| 20260506142536 | 75 | 127 | 2.0 | 3.0 | 0.00 | 0.00 | 0.00 | 32 | 1010.1 |
| 20260506142031 | 75 | 127 | 1.0 | 3.0 | 0.00 | 0.00 | 0.00 | 33 | 1010.1 |
| 20260506141535 | 74 | 178 | 0.0 | 3.0 | 0.00 | 0.00 | 0.00 | 34 | 1010.1 |
| 20260506141034 | 74 | 162 | 2.0 | 4.0 | 0.00 | 0.00 | 0.00 | 34 | 1010.1 |
| 20260506140031 | 74 | 100 | 1.0 | 3.0 | 0.00 | 0.00 | 0.00 | 32 | 1010.2 |
| 20260506135529 | 74 | 93 | 2.0 | 3.0 | 0.00 | 0.00 | 0.00 | 32 | 1010.2 |
| 20260506135028 | 73 | 89 | 0.0 | 3.0 | 0.00 | 0.00 | 0.00 | 34 | 1010.1 |
| 20260506134527 | 72 | 107 | 0.0 | 3.0 | 0.00 | 0.00 | 0.00 | 35 | 1009.8 |
| 20260506134026 | 72 | 191 | 1.0 | 4.0 | 0.00 | 0.00 | 0.00 | 36 | 1009.8 |
| 20260506133525 | 71 | 178 | 0.0 | 4.0 | 0.00 | 0.00 | 0.00 | 37 | 1009.8 |
| 20260506133023 | 71 | 200 | 2.0 | 4.0 | 0.00 | 0.00 | 0.00 | 36 | 1009.8 |
| 20260506132524 | 70 | 139 | 2.0 | 4.0 | 0.00 | 0.00 | 0.00 | 36 | 1009.8 |
| 20260506132024 | 70 | 117 | 0.0 | 2.0 | 0.00 | 0.00 | 0.00 | 38 | 1009.9 |
| 20260506131522 | 69 | 223 | 0.0 | 4.0 | 0.00 | 0.00 | 0.00 | 39 | 1009.8 |
| 20260506131025 | 69 | 174 | 1.0 | 3.0 | 0.00 | 0.00 | 0.00 | 39 | 1009.7 |
| 20260506130624 | 68 | 202 | 0.0 | 2.0 | 0.00 | 0.00 | 0.00 | 42 | 1009.7 |
| 20260506130023 | 68 | 202 | 1.0 | 2.0 | 0.00 | 0.00 | 0.00 | 43 | 1009.6 |
| 20260506125522 | 67 | 202 | 1.0 | 3.0 | 0.00 | 0.00 | 0.00 | 43 | 1009.7 |
| 20260506125022 | 67 | 210 | 0.0 | 3.0 | 0.00 | 0.00 | 0.00 | 44 | 1009.6 |
| 20260506124522 | 67 | 212 | 2.0 | 4.0 | 0.00 | 0.00 | 0.00 | 45 | 1009.7 |
| 20260506124021 | 67 | 212 | 1.0 | 4.0 | 0.00 | 0.00 | 0.00 | 45 | 1009.8 |
| 20260506123520 | 67 | 351 | 0.0 | 3.0 | 0.00 | 0.00 | 0.00 | 45 | 1009.6 |
| 20260506123019 | 67 | 351 | 1.0 | 4.0 | 0.00 | 0.00 | 0.00 | 45 | 1009.4 |
| 20260506122520 | 67 | 351 | 2.0 | 8.0 | 0.00 | 0.00 | 0.00 | 45 | 1009.2 |
| 20260506122018 | 67 | 352 | 2.0 | 8.0 | 0.00 | 0.00 | 0.00 | 45 | 1009.1 |
| 20260506121517 | 67 | 327 | 1.0 | 6.0 | 0.00 | 0.00 | 0.00 | 44 | 1008.8 |
| 20260506121016 | 67 | 54 | 0.0 | 2.0 | 0.00 | 0.00 | 0.00 | 45 | 1008.4 |
| 20260506120017 | 67 | 54 | 1.0 | 3.0 | 0.00 | 0.00 | 0.00 | 44 | 1008.2 |
| 20260506115516 | 67 | 54 | 0.0 | 7.0 | 0.00 | 0.00 | 0.00 | 44 | 1008.2 |
| 20260506115017 | 67 | 53 | 4.0 | 7.0 | 0.00 | 0.00 | 0.00 | 44 | 1008.3 |
| 20260506114515 | 67 | 25 | 0.0 | 3.0 | 0.00 | 0.00 | 0.00 | 44 | 1008.3 |
| 20260506114015 | 67 | 25 | 1.0 | 3.0 | 0.00 | 0.00 | 0.00 | 44 | 1008.3 |
| 20260506113514 | 67 | 25 | 1.0 | 3.0 | 0.00 | 0.00 | 0.00 | 44 | 1008.2 |
| 20260506113014 | 67 | 1 | 1.0 | 3.0 | 0.00 | 0.00 | 0.00 | 44 | 1008.2 |
| 20260506112516 | 67 | 348 | 0.0 | 1.0 | 0.00 | 0.00 | 0.00 | 43 | 1008.1 |
| 20260506112013 | 67 | 348 | 0.0 | 2.0 | 0.00 | 0.00 | 0.00 | 43 | 1007.9 |
| 20260506111513 | 67 | 348 | 0.0 | 2.0 | 0.00 | 0.00 | 0.00 | 42 | 1008.0 |
| 20260506111011 | 68 | 356 | 1.0 | 5.0 | 0.00 | 0.00 | 0.00 | 40 | 1007.8 |
| 20260506110010 | 68 | 17 | 2.0 | 5.0 | 0.00 | 0.00 | 0.00 | 40 | 1007.6 |
| 20260506105508 | 69 | 10 | 3.0 | 6.0 | 0.00 | 0.00 | 0.00 | 36 | 1007.5 |
| 20260506105008 | 70 | 1 | 3.0 | 6.0 | 0.00 | 0.00 | 0.00 | 34 | 1007.6 |
| 20260506104506 | 70 | 326 | 3.0 | 6.0 | 0.00 | 0.00 | 0.00 | 33 | 1007.7 |
| 20260506104005 | 70 | 327 | 3.0 | 6.0 | 0.00 | 0.00 | 0.00 | 33 | 1007.8 |
| 20260506103504 | 70 | 351 | 2.0 | 5.0 | 0.00 | 0.00 | 0.00 | 32 | 1007.9 |
| 20260506103003 | 70 | 301 | 3.0 | 9.0 | 0.00 | 0.00 | 0.00 | 32 | 1007.8 |
| 20260506102502 | 70 | 333 | 4.0 | 10.0 | 0.00 | 0.00 | 0.00 | 31 | 1007.7 |
| 20260506102001 | 71 | 327 | 6.0 | 10.0 | 0.00 | 0.00 | 0.00 | 31 | 1007.8 |
| 20260506101500 | 70 | 344 | 5.0 | 10.0 | 0.00 | 0.00 | 0.00 | 31 | 1007.7 |
| 20260506101001 | 70 | 316 | 2.0 | 7.0 | 0.00 | 0.00 | 0.00 | 32 | 1007.7 |
| 20260506100001 | 70 | 316 | 3.0 | 7.0 | 0.00 | 0.00 | 0.00 | 32 | 1007.3 |
| 20260506095601 | 70 | 325 | 3.0 | 7.0 | 0.00 | 0.00 | 0.00 | 32 | 1007.3 |
| 20260506095503 | 70 | 331 | 4.0 | 7.0 | 0.00 | 0.00 | 0.00 | 32 | 1007.3 |
| 20260506095103 | 70 | 306 | 0.0 | 4.0 | 0.00 | 0.00 | 0.00 | 32 | 1007.5 |
| 20260506094627 | 70 | 306 | 0.0 | 5.0 | 0.00 | 0.00 | 0.00 | 32 | 1007.4 |
| 20260506094100 | 71 | 302 | 2.0 | 5.0 | 0.00 | 0.00 | 0.00 | 31 | 1007.2 |
| 20260506093600 | 71 | 338 | 2.0 | 5.0 | 0.00 | 0.00 | 0.00 | 30 | 1007.2 |
| 20260506093101 | 72 | 345 | 2.0 | 6.0 | 0.00 | 0.00 | 0.00 | 28 | 1007.0 |
| 20260506092600 | 71 | 2 | 2.0 | 7.0 | 0.00 | 0.00 | 0.00 | 28 | 1007.0 |
| 20260506092100 | 71 | 342 | 3.0 | 7.0 | 0.00 | 0.00 | 0.00 | 28 | 1007.1 |
| 20260506091600 | 71 | 225 | 0.0 | 4.0 | 0.00 | 0.00 | 0.00 | 28 | 1006.8 |
| 20260506091059 | 71 | 225 | 2.0 | 4.0 | 0.00 | 0.00 | 0.00 | 28 | 1006.7 |
| 20260506090701 | 71 | 227 | 2.0 | 4.0 | 0.00 | 0.00 | 0.00 | 28 | 1006.8 |
| 20260506090059 | 71 | 227 | 2.0 | 4.0 | 0.00 | 0.00 | 0.00 | 29 | 1006.8 |
| 20260506085559 | 70 | 228 | 3.0 | 4.0 | 0.00 | 0.00 | 0.00 | 29 | 1006.9 |
| 20260506085059 | 70 | 137 | 1.0 | 3.0 | 0.00 | 0.00 | 0.00 | 31 | 1006.9 |
| 20260506084602 | 70 | 135 | 0.0 | 2.0 | 0.00 | 0.00 | 0.00 | 31 | 1006.8 |
| 20260506084103 | 70 | 135 | 0.0 | 2.0 | 0.00 | 0.00 | 0.00 | 31 | 1007.0 |
| 20260506083558 | 70 | 135 | 1.0 | 2.0 | 0.00 | 0.00 | 0.00 | 31 | 1007.2 |
| 20260506083104 | 70 | 135 | 0.0 | 3.0 | 0.00 | 0.00 | 0.00 | 31 | 1007.2 |
| 20260506082602 | 70 | 135 | 1.0 | 3.0 | 0.00 | 0.00 | 0.00 | 31 | 1007.1 |
| 20260506082058 | 70 | 135 | 1.0 | 3.0 | 0.00 | 0.00 | 0.00 | 31 | 1007.0 |
| 20260506081558 | 70 | 135 | 1.0 | 2.0 | 0.00 | 0.00 | 0.00 | 31 | 1007.2 |
| 20260506081157 | 70 | 135 | 1.0 | 2.0 | 0.00 | 0.00 | 0.00 | 31 | 1007.2 |
| 20260506080658 | 70 | 135 | 1.0 | 2.0 | 0.00 | 0.00 | 0.00 | 31 | 1007.1 |
| 20260506073105 | 71 | 135 | 1.0 | 4.0 | 0.00 | 0.00 | 0.00 | 28 | 1007.2 |
| 20260506072558 | 71 | 135 | 1.0 | 4.0 | 0.00 | 0.00 | 0.00 | 27 | 1007.2 |
| 20260506072058 | 72 | 149 | 2.0 | 3.0 | 0.00 | 0.00 | 0.00 | 27 | 1007.8 |
| 20260506071558 | 71 | 224 | 0.0 | 2.0 | 0.00 | 0.00 | 0.00 | 27 | 1007.9 |
| 20260506071057 | 71 | 224 | 0.0 | 2.0 | 0.00 | 0.00 | 0.00 | 27 | 1007.8 |
| 20260506070658 | 72 | 224 | 0.0 | 3.0 | 0.00 | 0.00 | 0.00 | 27 | 1007.7 |
| 20260506062055 | 70 | 195 | 2.0 | 4.0 | 0.00 | 0.00 | 0.00 | 30 | 1007.2 |
| 20260506061557 | 71 | 195 | 1.0 | 5.0 | 0.00 | 0.00 | 0.00 | 29 | 1007.3 |
| 20260506061154 | 71 | 195 | 3.0 | 5.0 | 0.00 | 0.00 | 0.00 | 29 | 1007.6 |
| 20260506060653 | 71 | 191 | 3.0 | 5.0 | 0.00 | 0.00 | 0.00 | 29 | 1007.2 |
| 20260506051152 | 71 | 190 | 0.0 | 4.0 | 0.00 | 0.00 | 0.00 | 30 | 1007.4 |
| 20260506050653 | 71 | 193 | 0.0 | 2.0 | 0.00 | 0.00 | 0.00 | 30 | 1007.5 |
| 20260506045050 | 71 | 193 | 1.0 | 2.0 | 0.00 | 0.00 | 0.00 | 28 | 1006.8 |
| 20260506044553 | 71 | 193 | 1.0 | 2.0 | 0.00 | 0.00 | 0.00 | 28 | 1007.1 |
| 20260506044050 | 72 | 193 | 0.0 | 0.0 | 0.00 | 0.00 | 0.00 | 29 | 1007.1 |
| 20260506043650 | 72 | 193 | 0.0 | 0.0 | 0.00 | 0.00 | 0.00 | 29 | 1007.1 |
| 20260506043050 | 72 | 193 | 0.0 | 0.0 | 0.00 | 0.00 | 0.00 | 28 | 1007.0 |
| 20260506042550 | 72 | 193 | 0.0 | 0.0 | 0.00 | 0.00 | 0.00 | 28 | 1007.0 |
| 20260506042051 | 72 | 193 | 0.0 | 0.0 | 0.00 | 0.00 | 0.00 | 27 | 1007.0 |
| 20260506041550 | 72 | 193 | 0.0 | 3.0 | 0.00 | 0.00 | 0.00 | 27 | 1006.9 |
| 20260506041049 | 72 | 193 | 1.0 | 3.0 | 0.00 | 0.00 | 0.00 | 28 | 1007.3 |
| 20260506040649 | 72 | 141 | 1.0 | 3.0 | 0.00 | 0.00 | 0.00 | 28 | 1007.3 |
| 20260506040059 | 72 | 141 | 1.0 | 3.0 | 0.00 | 0.00 | 0.00 | 28 | 1006.7 |
| 20260506035551 | 73 | 139 | 2.0 | 3.0 | 0.00 | 0.00 | 0.00 | 27 | 1006.9 |
| 20260506035050 | 73 | 135 | 2.0 | 3.0 | 0.00 | 0.00 | 0.00 | 26 | 1006.9 |
| 20260506034603 | 73 | 134 | 0.0 | 2.0 | 0.00 | 0.00 | 0.00 | 26 | 1006.8 |
| 20260506034049 | 73 | 134 | 0.0 | 2.0 | 0.00 | 0.00 | 0.00 | 27 | 1006.7 |
| 20260506033549 | 73 | 133 | 1.0 | 2.0 | 0.00 | 0.00 | 0.00 | 26 | 1006.7 |
| 20260506033049 | 73 | 133 | 0.0 | 3.0 | 0.00 | 0.00 | 0.00 | 26 | 1006.6 |
| 20260506032549 | 74 | 133 | 1.0 | 3.0 | 0.00 | 0.00 | 0.00 | 25 | 1006.6 |
| 20260506032051 | 74 | 134 | 1.0 | 2.0 | 0.00 | 0.00 | 0.00 | 25 | 1006.5 |
| 20260506031558 | 74 | 135 | 0.0 | 2.0 | 0.00 | 0.00 | 0.00 | 24 | 1006.5 |
| 20260506031054 | 75 | 135 | 0.0 | 2.0 | 0.00 | 0.00 | 0.00 | 23 | 1006.4 |
| 20260506030549 | 75 | 135 | 1.0 | 3.0 | 0.00 | 0.00 | 0.00 | 23 | 1006.5 |
| 20260506030048 | 75 | 135 | 1.0 | 3.0 | 0.00 | 0.00 | 0.00 | 22 | 1006.5 |
| 20260506025548 | 75 | 135 | 0.0 | 2.0 | 0.00 | 0.00 | 0.00 | 23 | 1006.3 |
| 20260506025048 | 76 | 135 | 0.0 | 2.0 | 0.00 | 0.00 | 0.00 | 23 | 1006.5 |
| 20260506024548 | 76 | 135 | 1.0 | 2.0 | 0.00 | 0.00 | 0.00 | 22 | 1006.4 |
| 20260506024048 | 77 | 135 | 1.0 | 2.0 | 0.00 | 0.00 | 0.00 | 21 | 1006.4 |
| 20260506023549 | 77 | 135 | 0.0 | 5.0 | 0.00 | 0.00 | 0.00 | 20 | 1006.5 |
| 20260506023048 | 78 | 135 | 2.0 | 5.0 | 0.00 | 0.00 | 0.00 | 20 | 1006.4 |
| 20260506022547 | 78 | 351 | 0.0 | 2.0 | 0.00 | 0.00 | 0.00 | 18 | 1006.2 |
| 20260506022046 | 78 | 351 | 0.0 | 3.0 | 0.00 | 0.00 | 0.00 | 17 | 1006.2 |
| 20260506021550 | 78 | 351 | 0.0 | 3.0 | 0.00 | 0.00 | 0.00 | 17 | 1006.0 |
| 20260506021047 | 79 | 351 | 1.0 | 3.0 | 0.00 | 0.00 | 0.00 | 17 | 1006.1 |
| 20260506020645 | 79 | 351 | 0.0 | 2.0 | 0.00 | 0.00 | 0.00 | 17 | 1006.1 |
| 20260506020047 | 79 | 351 | 0.0 | 2.0 | 0.00 | 0.00 | 0.00 | 16 | 1006.2 |
| 20260506015548 | 80 | 351 | 1.0 | 2.0 | 0.00 | 0.00 | 0.00 | 15 | 1006.2 |
| 20260506015048 | 80 | 351 | 1.0 | 3.0 | 0.00 | 0.00 | 0.00 | 15 | 1005.9 |
| 20260506014546 | 81 | 351 | 1.0 | 4.0 | 0.00 | 0.00 | 0.00 | 14 | 1005.8 |
| 20260506014050 | 81 | 351 | 1.0 | 4.0 | 0.00 | 0.00 | 0.00 | 13 | 1006.0 |
| 20260506013546 | 81 | 349 | 1.0 | 4.0 | 0.00 | 0.00 | 0.00 | 13 | 1006.0 |
| 20260506013047 | 81 | 358 | 2.0 | 5.0 | 0.00 | 0.00 | 0.00 | 13 | 1005.9 |
| 20260506012546 | 82 | 352 | 2.0 | 6.0 | 0.00 | 0.00 | 0.00 | 12 | 1005.9 |
| 20260506012046 | 82 | 341 | 3.0 | 5.0 | 0.00 | 0.00 | 0.00 | 12 | 1006.0 |
| 20260506011545 | 82 | 360 | 3.0 | 5.0 | 0.00 | 0.00 | 0.00 | 12 | 1005.9 |
| 20260506011045 | 83 | 358 | 2.0 | 6.0 | 0.00 | 0.00 | 0.00 | 11 | 1005.8 |
| 20260506010645 | 83 | 5 | 3.0 | 6.0 | 0.00 | 0.00 | 0.00 | 11 | 1005.7 |
| 20260506010045 | 83 | 4 | 3.0 | 6.0 | 0.00 | 0.00 | 0.00 | 11 | 1005.7 |
| 20260506005543 | 84 | 17 | 3.0 | 8.0 | 0.00 | 0.00 | 0.00 | 11 | 1005.5 |
| 20260506005043 | 84 | 335 | 3.0 | 10.0 | 0.00 | 0.00 | 0.00 | 10 | 1005.5 |
| 20260506004542 | 84 | 355 | 5.0 | 10.0 | 0.00 | 0.00 | 0.00 | 10 | 1005.4 |
| 20260506004042 | 85 | 353 | 4.0 | 15.0 | 0.00 | 0.00 | 0.00 | 10 | 1005.3 |
| 20260506003543 | 85 | 348 | 6.0 | 15.0 | 0.00 | 0.00 | 0.00 | 9 | 1005.3 |
| 20260506003043 | 85 | 9 | 5.0 | 12.0 | 0.00 | 0.00 | 0.00 | 9 | 1005.2 |
| 20260506002542 | 86 | 343 | 5.0 | 13.0 | 0.00 | 0.00 | 0.00 | 9 | 1005.2 |
| 20260506002042 | 87 | 7 | 7.0 | 13.0 | 0.00 | 0.00 | 0.00 | 9 | 1005.2 |
| 20260506001542 | 87 | 32 | 5.0 | 12.0 | 0.00 | 0.00 | 0.00 | 8 | 1005.1 |
| 20260506001041 | 88 | 27 | 6.0 | 15.0 | 0.00 | 0.00 | 0.00 | 7 | 1005.1 |
| 20260506000644 | 88 | 330 | 4.0 | 10.0 | 0.00 | 0.00 | 0.00 | 9 | 1005.0 |
| 20260506000042 | 88 | 349 | 5.0 | 10.0 | 0.00 | 0.00 | 0.00 | 9 | 1005.0 |
| 20260505235541 | 88 | 353 | 3.0 | 9.0 | 0.00 | 0.00 | 0.00 | 11 | 1005.1 |
| 20260505235041 | 88 | 20 | 2.0 | 10.0 | 0.00 | 0.00 | 0.00 | 11 | 1005.1 |
| 20260505234547 | 88 | 10 | 5.0 | 11.0 | 0.00 | 0.00 | 0.00 | 11 | 1005.1 |
| 20260505234144 | 88 | 13 | 6.0 | 12.0 | 0.00 | 0.00 | 0.00 | 10 | 1005.1 |
| 20260505233540 | 88 | 356 | 4.0 | 10.0 | 0.00 | 0.00 | 0.00 | 11 | 1005.0 |
| 20260505233042 | 88 | 356 | 5.0 | 10.0 | 0.00 | 0.00 | 0.00 | 10 | 1004.7 |
| 20260505232540 | 88 | 342 | 6.0 | 11.0 | 0.00 | 0.00 | 0.00 | 10 | 1004.9 |
| 20260505232041 | 89 | 347 | 5.0 | 11.0 | 0.00 | 0.00 | 0.00 | 10 | 1004.9 |
| 20260505231547 | 89 | 2 | 5.0 | 10.0 | 0.00 | 0.00 | 0.00 | 10 | 1005.0 |
| 20260505231039 | 89 | 336 | 4.0 | 10.0 | 0.00 | 0.00 | 0.00 | 9 | 1004.9 |
| 20260505230639 | 90 | 10 | 3.0 | 10.0 | 0.00 | 0.00 | 0.00 | 10 | 1005.0 |
| 20260505230039 | 90 | 325 | 5.0 | 10.0 | 0.00 | 0.00 | 0.00 | 9 | 1005.0 |
| 20260505225539 | 90 | 5 | 4.0 | 14.0 | 0.00 | 0.00 | 0.00 | 10 | 1004.9 |
| 20260505225040 | 90 | 5 | 3.0 | 14.0 | 0.00 | 0.00 | 0.00 | 9 | 1005.1 |
| 20260505224538 | 90 | 2 | 4.0 | 10.0 | 0.00 | 0.00 | 0.00 | 9 | 1005.0 |
| 20260505224038 | 90 | 313 | 6.0 | 12.0 | 0.00 | 0.00 | 0.00 | 9 | 1005.0 |
| 20260505223538 | 90 | 316 | 6.0 | 13.0 | 0.00 | 0.00 | 0.00 | 9 | 1005.0 |
| 20260505223048 | 91 | 295 | 5.0 | 13.0 | 0.00 | 0.00 | 0.00 | 8 | 1005.1 |
| 20260505222537 | 91 | 35 | 6.0 | 13.0 | 0.00 | 0.00 | 0.00 | 9 | 1005.2 |
| 20260505222038 | 91 | 336 | 3.0 | 11.0 | 0.00 | 0.00 | 0.00 | 8 | 1005.1 |
| 20260505221537 | 91 | 325 | 6.0 | 14.0 | 0.00 | 0.00 | 0.00 | 9 | 1005.1 |
| 20260505221036 | 91 | 2 | 7.0 | 14.0 | 0.00 | 0.00 | 0.00 | 8 | 1005.1 |
| 20260505220637 | 91 | 29 | 5.0 | 14.0 | 0.00 | 0.00 | 0.00 | 8 | 1005.1 |
| 20260505220042 | 91 | 321 | 6.0 | 14.0 | 0.00 | 0.00 | 0.00 | 8 | 1005.3 |
| 20260505215538 | 91 | 325 | 8.0 | 14.0 | 0.00 | 0.00 | 0.00 | 8 | 1005.4 |
| 20260505215038 | 92 | 360 | 6.0 | 16.0 | 0.00 | 0.00 | 0.00 | 8 | 1005.4 |
| 20260505214547 | 92 | 345 | 6.0 | 16.0 | 0.00 | 0.00 | 0.00 | 7 | 1005.5 |
| 20260505214037 | 92 | 306 | 7.0 | 15.0 | 0.00 | 0.00 | 0.00 | 8 | 1005.5 |
| 20260505213536 | 91 | 358 | 4.0 | 14.0 | 0.00 | 0.00 | 0.00 | 8 | 1005.6 |
| 20260505213038 | 91 | 323 | 9.0 | 16.0 | 0.00 | 0.00 | 0.00 | 8 | 1005.7 |
| 20260505212536 | 92 | 304 | 8.0 | 15.0 | 0.00 | 0.00 | 0.00 | 8 | 1005.6 |
| 20260505212035 | 92 | 351 | 6.0 | 15.0 | 0.00 | 0.00 | 0.00 | 8 | 1005.8 |
| 20260505211536 | 92 | 339 | 7.0 | 14.0 | 0.00 | 0.00 | 0.00 | 8 | 1005.8 |
| 20260505211038 | 92 | 338 | 7.0 | 19.0 | 0.00 | 0.00 | 0.00 | 7 | 1005.8 |
| 20260505210635 | 92 | 358 | 7.0 | 19.0 | 0.00 | 0.00 | 0.00 | 8 | 1005.8 |
| 20260505210034 | 92 | 340 | 8.0 | 19.0 | 0.00 | 0.00 | 0.00 | 8 | 1005.9 |
| 20260505205533 | 92 | 310 | 7.0 | 14.0 | 0.00 | 0.00 | 0.00 | 8 | 1005.8 |
| 20260505205032 | 92 | 331 | 6.0 | 15.0 | 0.00 | 0.00 | 0.00 | 8 | 1005.9 |
| 20260505204535 | 91 | 337 | 7.0 | 15.0 | 0.00 | 0.00 | 0.00 | 9 | 1006.0 |
| 20260505204030 | 90 | 2 | 6.0 | 13.0 | 0.00 | 0.00 | 0.00 | 9 | 1006.1 |
| 20260505203530 | 90 | 264 | 8.0 | 14.0 | 0.00 | 0.00 | 0.00 | 9 | 1006.0 |
| 20260505203032 | 91 | 312 | 6.0 | 14.0 | 0.00 | 0.00 | 0.00 | 8 | 1006.2 |
| 20260505202530 | 92 | 338 | 7.0 | 15.0 | 0.00 | 0.00 | 0.00 | 8 | 1006.2 |
| 20260505202030 | 92 | 328 | 9.0 | 13.0 | 0.00 | 0.00 | 0.00 | 8 | 1006.2 |
| 20260505201528 | 92 | 329 | 6.0 | 14.0 | 0.00 | 0.00 | 0.00 | 8 | 1006.2 |
| 20260505201029 | 91 | 316 | 8.0 | 18.0 | 0.00 | 0.00 | 0.00 | 9 | 1006.3 |
| 20260505200629 | 91 | 336 | 8.0 | 18.0 | 0.00 | 0.00 | 0.00 | 9 | 1006.4 |
| 20260505200040 | 91 | 344 | 9.0 | 18.0 | 0.00 | 0.00 | 0.00 | 8 | 1006.4 |
| 20260505195534 | 91 | 306 | 8.0 | 18.0 | 0.00 | 0.00 | 0.00 | 8 | 1006.4 |
| 20260505195031 | 91 | 308 | 9.0 | 13.0 | 0.00 | 0.00 | 0.00 | 8 | 1006.5 |
| 20260505194529 | 91 | 309 | 6.0 | 12.0 | 0.00 | 0.00 | 0.00 | 9 | 1006.5 |
| 20260505194029 | 90 | 338 | 8.0 | 17.0 | 0.00 | 0.00 | 0.00 | 9 | 1006.5 |
| 20260505193529 | 90 | 290 | 6.0 | 18.0 | 0.00 | 0.00 | 0.00 | 9 | 1006.5 |
| 20260505193030 | 90 | 12 | 8.0 | 18.0 | 0.00 | 0.00 | 0.00 | 9 | 1006.5 |
| 20260505192531 | 90 | 334 | 9.0 | 18.0 | 0.00 | 0.00 | 0.00 | 9 | 1006.5 |
| 20260505192028 | 90 | 309 | 11.0 | 19.0 | 0.00 | 0.00 | 0.00 | 9 | 1006.6 |
| 20260505191528 | 90 | 281 | 7.0 | 19.0 | 0.00 | 0.00 | 0.00 | 9 | 1006.7 |
| 20260505191028 | 90 | 327 | 10.0 | 19.0 | 0.00 | 0.00 | 0.00 | 9 | 1006.7 |
| 20260505190627 | 90 | 309 | 8.0 | 14.0 | 0.00 | 0.00 | 0.00 | 9 | 1006.9 |
| 20260505190031 | 90 | 327 | 7.0 | 14.0 | 0.00 | 0.00 | 0.00 | 9 | 1006.9 |
| 20260505185623 | 89 | 351 | 7.0 | 14.0 | 0.00 | 0.00 | 0.00 | 10 | 1006.8 |